User: anonymous
Location: Radford
(37.1320°N, 80.5770°W)
Time: 22:20:31
(UTC-04:00)
Language:

Okean 1-7 - Orbit

View from above orbital plane
View from above orbital plane
View from above satellite
View from above satellite

Ground track
Ground track

The orbit data is extracted from the following two-line orbital elements,

1 23317U 94066A   14250.44418236  .00000930  00000-0  10697-3 0  6259
2 23317 082.5393 350.8015 0020253 185.2050 174.9536 14.85667507 75324
Epoch (UTC): 07 September 2014 10:39:37
Eccentricity: 0.0020253
inclination: 82.5393°
perigee height: 597 km
apogee height: 625 km
right ascension of ascending node: 350.8015°
argument of perigee: 185.2050°
revolutions per day: 14.85667507
mean anomaly at epoch: 174.9536°
orbit number at epoch: 7532

The dashed part of the orbit path shows where the satellite is in the earth's shadow,  

DLR